Location: Caltech
(34.1382°N, 118.1253°W)
Time: 06:27:14
(UTC-07:00)

Cosmos 1980 Rocket - Visible Passes

Search period start: 28 July 2015 00:00
Search period end: 07 August 2015 00:00
Orbit: 830 x 849 km, 71.0° (Epoch: 28 July)

Date Brightness Start Highest point End Pass type
(mag) Time Alt. Az. Time Alt. Az. Time Alt. Az.
31 Jul 4.0 05:33:57 10° SSE 05:38:53 33° ESE 05:43:56 10° NE visible
01 Aug 4.0 05:18:26 10° SSE 05:23:16 31° ESE 05:28:13 10° NE visible
02 Aug 4.1 05:02:57 10° SSE 05:07:40 28° ESE 05:12:29 10° NE visible
03 Aug 4.1 04:47:29 10° SSE 04:52:02 27° ESE 04:56:45 10° NE visible
04 Aug 4.2 04:32:01 10° SSE 04:36:26 25° ESE 04:41:00 10° NE visible
05 Aug 4.2 04:16:35 10° SSE 04:20:49 23° ESE 04:25:14 10° NE visible
06 Aug 4.3 04:01:09 10° SSE 04:05:12 21° ESE 04:09:28 10° NE visible
